Current Weather Conditions: station 63101

sailwx.info

Last reported at 2018-Mar-30 01:44 UTC.
Time now 2018-May-26 13:59 UTC

Location: N 61°12' E 000°54'.
View on Google Maps.

See reports from other nearby stations

  
Tides and Currents Weather Stations Pressure Air Temp Water Temp Dewpoint Dewpoint Depression Visibility Wind Speed Wind Dir Waves Ship Positions
date/time (UTC)wind fromknots sea level pressurealtimeterstation pressurevisibilityair tempwater tempwave heightnotes
2018-May-26 13:00 050 11 10.9 1.2
2018-May-26 12:00 050 11 10.5 1.2
2018-May-26 11:00 040 15 10.7 1.3
2018-May-26 10:00 050 15 10.2 1.3
2018-May-26 09:00 050 17 9.8 1.3
2018-May-26 08:00 040 15 9.4 1.3
2018-May-26 07:00 040 13 9.3 1.2
2018-May-26 06:00 050 15 9.1 1.3
2018-May-26 05:00 040 12 8.9 1.4
2018-May-26 04:00 040 12 8.9 1.3
2018-May-26 03:00 040 11 8.9 1.3
2018-May-26 02:00 040 12 9.0 1.2
2018-May-26 01:00 030 13 9.0 1.3
2018-May-26 00:00 030 12 9.0 1.2
2018-May-25 23:00 040 11 9.2 1.2
2018-May-25 22:00 050 12 9.7 1.1
2018-May-25 21:00 040 9 10.0 1.1
2018-May-25 20:00 030 7 10.1 1.2
2018-May-25 19:00 040 8 10.2 1.0
2018-May-25 18:00 040 9 10.2 1.2
2018-May-25 17:00 050 9 10.3 1.2
2018-May-25 16:00 030 9 10.5 1.2
2018-May-25 15:00 030 7 10.6 1.2
2018-May-25 14:00 020 6 10.6 1.2
2018-May-25 13:00 020 5 10.4 1.3
2018-May-25 12:00 350 6 10.1 1.4
2018-May-25 11:00 360 4 10.3 1.5
2018-May-25 10:00 070 0 10.0 1.5
2018-May-25 09:00 330 1 10.0 1.6
2018-May-25 08:00 320 5 9.8 1.6
2018-May-25 07:00 300 6 9.4 1.6
2018-May-25 06:00 270 7 9.4 1.6
2018-May-25 05:00 250 6 9.3 1.8
2018-May-25 04:00 230 8 9.4 1.7
2018-May-25 03:00 220 11 9.5 1.7
2018-May-25 02:00 210 12 9.3 1.8
2018-May-25 01:00 190 12 9.3 1.8
2018-May-25 00:00 180 12 9.1 1.9
2018-May-24 23:00 190 12 8.9 2.0
2018-May-24 22:00 180 11 8.9 2.0
2018-May-24 21:00 180 12 8.7 1.8
2018-May-24 20:00 180 13 8.3 1.9
2018-May-24 19:00 180 12 8.4 2.0
2018-May-24 18:00 190 12 8.6 1.9
2018-May-24 17:00 180 12 8.8 2.0
2018-May-24 16:00 190 12 9.2 2.0
2018-May-24 15:00 190 12 9.4 2.2
2018-May-24 14:00 190 12 9.4 2.1
2018-May-24 13:00 190 13 9.1 1.9